Date String (YYYY-MM-DD hh:mm:ss) UTC,Instrument flags,Ambient pressure (hPa),Sample flow (lpm),Bypass flow (lpm),Sample temperature (°C),Ambient temperature (°C),ASC tube jacket temperature (°C),LED temperature (°C),Box temperature (°C),Sample RH (%),Span deviation,Mass concentration (μg/m³),Mass concentration (μg/m³),Mass concentration (μg/m³)
DateTimeUTC,F1_M11,P_M11,Q1_M11,Q2_M11,T1_M11,T2_M11,T3_M11,T4_M11,T5_M11,U1_M11,ZSPAN_M11,X2_M11,X0_M11,X1_M11
2023-04-27 05:00:00,,0828.7,5.01,0.00,23.6,22.2,00.0,32.0,25.2,22.7,0000.0,0003.57,0007.31,0003.17
2023-04-27 05:01:00,,0828.6,5.01,0.00,23.7,22.3,00.0,32.0,25.3,22.6,0000.0,0003.58,0006.54,0003.18
2023-04-27 05:02:00,,0828.6,4.99,0.00,23.7,22.3,00.0,32.0,25.3,22.7,0000.0,0003.58,0006.41,0003.18
2023-04-27 05:03:00,,0828.7,4.99,0.00,23.7,22.4,00.0,32.0,25.3,22.7,0000.0,0003.57,0006.40,0003.18
2023-04-27 05:04:00,,0828.7,5.01,0.00,23.7,22.4,00.0,32.0,25.3,22.8,0000.0,0003.58,0006.43,0003.19
2023-04-27 05:05:00,,0828.7,5.00,0.00,23.7,22.4,00.0,32.0,25.3,23.0,0000.0,0003.57,0006.37,0003.20
2023-04-27 05:06:00,,0828.6,5.00,0.00,23.7,22.4,00.0,32.1,25.3,23.1,0000.0,0003.58,0006.37,0003.21
2023-04-27 05:07:00,,0828.6,4.99,0.00,23.7,22.4,00.0,32.1,25.3,23.2,0000.0,0003.56,0007.14,0003.24
2023-04-27 05:08:00,,0828.6,4.99,0.00,23.7,22.4,00.0,32.1,25.3,23.0,0000.0,0003.56,0007.47,0003.25
2023-04-27 05:09:00,,0828.6,4.99,0.00,23.7,22.4,00.0,32.1,25.3,22.9,0000.0,0003.57,0007.50,0003.25
2023-04-27 05:10:00,,0828.6,4.99,0.00,23.7,22.3,00.0,32.1,25.3,23.1,0000.0,0003.60,0007.51,0003.26
2023-04-27 05:11:00,,0828.6,5.01,0.00,23.7,22.3,00.0,32.1,25.3,23.2,0000.0,0003.63,0007.52,0003.28
2023-04-27 05:12:00,,0828.6,5.00,0.00,23.7,22.3,00.0,32.1,25.3,23.2,0000.0,0003.65,0007.45,0003.31
2023-04-27 05:13:00,,0828.5,5.00,0.00,23.7,22.2,00.0,32.1,25.2,23.1,0000.0,0003.66,0007.41,0003.34
2023-04-27 05:14:00,,0828.6,5.01,0.00,23.7,22.2,00.0,32.1,25.2,23.1,0000.0,0003.69,0007.44,0003.37
2023-04-27 05:15:00,,0828.5,5.00,0.00,23.7,22.3,00.0,32.1,25.2,23.1,0000.0,0003.72,0007.44,0003.39
2023-04-27 05:16:00,,0828.5,5.00,0.00,23.7,22.3,00.0,32.1,25.3,23.0,0000.0,0003.73,0007.40,0003.41
2023-04-27 05:17:00,,0828.6,4.99,0.00,23.7,22.3,00.0,32.1,25.3,23.0,0000.0,0003.75,0007.43,0003.43
2023-04-27 05:18:00,,0828.5,5.00,0.00,23.7,22.3,00.0,32.1,25.3,23.0,0000.0,0003.73,0006.45,0003.43
2023-04-27 05:19:00,,0828.6,5.01,0.00,23.7,22.2,00.0,32.1,25.2,23.0,0000.0,0003.76,0006.00,0003.45
2023-04-27 05:20:00,,0828.5,5.00,0.00,23.7,22.2,00.0,32.1,25.2,23.0,0000.0,0003.78,0006.07,0003.47
2023-04-27 05:21:00,,0828.5,5.00,0.00,23.7,22.2,00.0,32.1,25.2,23.0,0000.0,0003.75,0007.12,0003.46
2023-04-27 05:22:00,,0828.5,5.00,0.00,23.7,22.2,00.0,32.1,25.2,22.9,0000.0,0003.75,0007.51,0003.46
2023-04-27 05:23:00,,0828.5,5.00,0.00,23.7,22.2,00.0,32.1,25.2,22.8,0000.0,0003.74,0007.50,0003.44
2023-04-27 05:24:00,,0828.6,5.00,0.00,23.7,22.2,00.0,32.1,25.2,22.8,0000.0,0003.74,0007.48,0003.43
2023-04-27 05:25:00,,0828.5,5.00,0.00,23.7,22.3,00.0,32.1,25.3,22.7,0000.0,0003.73,0007.47,0003.41
2023-04-27 05:26:00,,0828.5,5.00,0.00,23.7,22.3,00.0,32.1,25.3,22.7,0000.0,0003.71,0007.45,0003.40
2023-04-27 05:27:00,,0828.5,5.00,0.00,23.7,22.3,00.0,32.1,25.4,22.7,0000.0,0003.67,0007.38,0003.38
2023-04-27 05:28:00,,0828.5,5.00,0.00,23.7,22.3,00.0,32.1,25.3,22.7,0000.0,0003.65,0007.32,0003.36
2023-04-27 05:29:00,,0828.5,5.00,0.00,23.7,22.3,00.0,32.1,25.3,22.7,0000.0,0003.65,0007.37,0003.34
2023-04-27 05:30:00,,0828.6,5.00,0.00,23.7,22.3,00.0,32.1,25.2,22.5,0000.0,0003.63,0007.91,0003.32
2023-04-27 05:31:00,,0828.5,4.99,0.00,23.7,22.3,00.0,32.1,25.2,22.6,0000.0,0003.60,0007.99,0003.29
2023-04-27 05:32:00,,0828.5,4.98,0.00,23.7,22.2,00.0,32.1,25.2,22.4,0000.0,0003.59,0007.11,0003.28
2023-04-27 05:33:00,,0828.4,5.01,0.00,23.7,22.2,00.0,32.1,25.2,22.3,0000.0,0003.56,0006.74,0003.25
2023-04-27 05:34:00,,0828.4,5.01,0.00,23.7,22.2,00.0,32.1,25.2,22.3,0000.0,0003.54,0006.66,0003.23
2023-04-27 05:35:00,,0828.4,4.99,0.00,23.7,22.2,00.0,32.1,25.2,22.2,0000.0,0003.53,0006.72,0003.20
2023-04-27 05:36:00,,0828.4,5.00,0.00,23.7,22.2,00.0,32.1,25.2,22.2,0000.0,0003.52,0006.78,0003.19
2023-04-27 05:37:00,,0828.4,5.00,0.00,23.7,22.2,00.0,32.1,25.2,22.3,0000.0,0003.51,0006.73,0003.18
2023-04-27 05:38:00,,0828.4,5.01,0.00,23.7,22.2,00.0,32.1,25.2,22.3,0000.0,0003.51,0006.92,0003.17
2023-04-27 05:39:00,,0828.4,5.00,0.00,23.7,22.2,00.0,32.1,25.2,22.3,0000.0,0003.51,0007.54,0003.17
2023-04-27 05:40:00,,0828.4,4.99,0.00,23.7,22.3,00.0,32.1,25.2,22.4,0000.0,0003.55,0008.80,0003.18
2023-04-27 05:41:00,,0828.4,5.01,0.00,23.7,22.3,00.0,32.1,25.3,22.4,0000.0,0003.62,0009.03,0003.19
2023-04-27 05:42:00,,0828.4,5.00,0.00,23.7,22.4,00.0,32.1,25.3,22.3,0000.0,0003.63,0008.92,0003.20
2023-04-27 05:43:00,,0828.4,4.99,0.00,23.7,22.4,00.0,32.1,25.4,22.4,0000.0,0003.66,0010.01,0003.22
2023-04-27 05:44:00,,0828.4,5.00,0.00,23.7,22.3,00.0,32.1,25.3,22.5,0000.0,0003.71,0010.37,0003.25
2023-04-27 05:45:00,,0828.4,4.99,0.00,23.7,22.3,00.0,32.1,25.3,22.5,0000.0,0003.75,0010.44,0003.27
2023-04-27 05:46:00,,0828.4,5.00,0.00,23.7,22.3,00.0,32.1,25.3,22.5,0000.0,0003.77,0010.72,0003.29
2023-04-27 05:47:00,,0828.3,4.99,0.00,23.7,22.3,00.0,32.1,25.3,22.4,0000.0,0003.81,0011.00,0003.31
2023-04-27 05:48:00,,0828.4,4.99,0.00,23.7,22.3,00.0,32.1,25.4,22.4,0000.0,0003.87,0011.26,0003.32
2023-04-27 05:49:00,,0828.4,5.00,0.00,23.7,22.3,00.0,32.1,25.3,22.3,0000.0,0003.89,0012.26,0003.33
2023-04-27 05:50:00,,0828.4,5.01,0.00,23.7,22.3,00.0,32.1,25.3,22.3,0000.0,0003.90,0012.14,0003.33
2023-04-27 05:51:00,,0828.4,5.00,0.00,23.7,22.3,00.0,32.1,25.3,22.3,0000.0,0003.90,0011.00,0003.32
2023-04-27 05:52:00,,0828.4,5.00,0.00,23.7,22.3,00.0,32.1,25.3,22.1,0000.0,0003.87,0010.70,0003.32
2023-04-27 05:53:00,,0828.4,4.99,0.00,23.7,22.3,00.0,32.1,25.2,21.7,0000.0,0003.84,0010.94,0003.29
2023-04-27 05:54:00,,0828.4,4.99,0.00,23.7,22.3,00.0,32.1,25.2,21.8,0000.0,0003.81,0010.75,0003.27
2023-04-27 05:55:00,,0828.3,5.01,0.00,23.7,22.3,00.0,32.1,25.2,21.6,0000.0,0003.76,0010.58,0003.25
2023-04-27 05:56:00,,0828.4,5.01,0.00,23.7,22.3,00.0,32.1,25.3,21.2,0000.0,0003.70,0010.48,0003.21
2023-04-27 05:57:00,,0828.3,5.00,0.00,23.7,22.2,00.0,32.1,25.2,21.2,0000.0,0003.64,0010.11,0003.18
2023-04-27 05:58:00,,0828.4,4.99,0.00,23.7,22.2,00.0,32.1,25.3,21.2,0000.0,0003.57,0009.80,0003.14
2023-04-27 05:59:00,,0828.4,5.00,0.00,23.7,22.2,00.0,32.1,25.3,21.3,0000.0,0003.51,0009.88,0003.11
